Location: Bathurst
(33.4193°S, 149.5775°E)
Time: 11:59:52
(UTC+10:00)

Explorer 7 - Pass Details

Date: 19 June 2021
Orbit: 484 x 676 km, 50.3° (Epoch: 02 August)

Event Time Altitude Azimuth Distance (km) Brightness Sun altitude
Rises 17:18:38 0° 248° (WSW) 2,787 11.1 -4.1°
Reaches altitude 10° 17:21:34 10° 269° (W) 1,924 10.8 -4.6°
Maximum altitude 17:24:18 16° 308° (NW) 1,585 10.6 -5.2°
Drops below altitude 10° 17:27:07 10° 346° (NNW) 1,985 10.2 -5.7°
Sets 17:30:14 0° 7° (N) 2,922 10.8 -6.3°
